Tracking 19564 objects as of 18-Mar-2019
HD Live streaming from Space Station
objects crossing your sky now

GALAXY 4R

Track GALAXY 4R now!
GALAXY 4R is classified as:


NORAD ID: 26298
Int'l Code: 2000-020A
Perigee: 35,897.3 km
Apogee: 35,931.6 km
Inclination: 9.4 °
Period: 1,442.3 minutes
Semi major axis: 42285 km
RCS: 26.0372 m2 (large)
Launch date: April 19, 2000
Source: United States (US)
Launch site: FRENCH GUIANA (FRGUI)

Television and Internet; 24 C-band, 24 Ku-band; North America.
aabbcc
Your satellite tracking list
Your tracking list is empty




NASA's NSSDC Master Catalog

Two Line Element Set (TLE):
1 26298U 00020A   19076.70166782 -.00000244 +00000-0 +00000-0 0  9990
2 26298 009.3824 041.3239 0004058 264.6396 099.6934 00.99842693069184
Source of the keplerian elements: AFSPC